Simultaneous Nadir Overpasses (SNOs) Predictions

Prediction of SNOs between GOES-14 and AQUA Satellite Orbit:

Table of predicted SNOs for the next 14.0 days since TLE Epoch: 6/3/2022
Index Date Time (GOES-14) GOES-14 Lat,Lon AQUA Lat,Lon Distance(km) Time Diff (sec)
1 06/04/2022 20:20:04 0.01,-104.69 0.82,-100.87 434.13 80
2 06/05/2022 08:41:14 -0.04,-104.45 0.29,-106.00 176.17 80
3 06/07/2022 08:31:22 -0.04,-104.46 -0.37,-102.95 171.40 80
4 06/07/2022 20:50:02 0.06,-104.71 -0.65,-108.13 389.12 80
5 06/09/2022 20:37:29 0.06,-104.71 -0.04,-105.08 41.59 80
6 06/11/2022 20:27:37 0.06,-104.72 0.64,-102.03 305.71 80
7 06/12/2022 08:46:07 -0.09,-104.46 0.46,-107.16 306.40 80
8 06/14/2022 08:36:14 -0.09,-104.46 -0.17,-104.11 40.41 80
9 06/16/2022 08:23:41 -0.09,-104.46 -0.82,-101.05 387.19 80
10 06/16/2022 20:42:20 0.11,-104.72 -0.24,-106.23 172.41 80
